Powrót do katalogu

COSMOS 917 DEB

AktywnyHEO
NORAD 27888·DEBRIS·🇷🇺 Russia

Wystrzelony Jun 16, 1977 z Plesetsk Cosmodrome

Loading…

Następne Przeloty (najbliższe 24 godziny)

TLE

ŚwieżeSource: Space-Track

Epoka: Sep 13, 2026, 07:51 UTC

1 27888U 77047L   26256.32713304 -.00000414  00000-0  76351-3 0  9997
2 27888  60.0637 211.3544 7459555  58.4213 353.3202  2.02135150219986

Śledź COSMOS 917 DEB w czasie rzeczywistym z AllMySat

Download on the App Store